www.pogodaiklimat.ru

Погода и климат >> Архив погоды >> Таиланд >> Пхитсанулок


ПОГОДА в Пхитсанулоке

  • Прогноз погоды в Пхитсанулоке
  • Монитор погоды в Пхитсанулоке

АРХИВ ПОГОДЫ в Пхитсанулоке

Время (UTC), дата Ветер
(напр.,м/с)
 
Видим.   Явления Облачность Т
(С)
Тd
(С)
f
(%)
Тe
(С)
Тes
(С)
Комфортность P
(гПа)
Po
(гПа)
Тmin
(С)
Tmax
(С)
R
(мм)
R24
(мм)
S
(см)
09 14.07 ЮВ 4 8000 м в посл. час дождь 10/5 600 м
[Cb cap Ac As Cs]
+30.0 +25.2 76 +44 +45 опасность
перегрева
1003.2 998.1 0.0
12 14.07 ЮЗ 3 10 км {дождь} 10/4 600 м
[Cu Sc Ac lent Cs]
+30.0 +26.5 82 +46 +46 опасность
перегрева
1004.0 998.9 +34.5 0.0
15 14.07 СВ 3 10 км 6/3 1000 м
[Sc Ac lent Cs]
+27.5 +24.2 82 +38 +38 очень
душно
1005.9 1000.7
18 14.07 штиль 0 10 км 6/3 600 м
[Sc Ac lent Cs]
+26.5 +23.6 84 +36 +36 очень
душно
1005.1 999.8
21 14.07 штиль 0 10 км 9/4 600 м
[Sc Ac lent Cs]
+26.3 +24.4 89 +37 +37 очень
душно
1004.6 999.4
00 15.07 штиль 0 10 км 8/3 600 м
[Sc Ac und Cs]
+26.1 +23.9 88 +36 +37 очень
душно
1004.7 999.5 +24.6
03 15.07 Ю 4 10 км 8/3 600 м
[Sc Ac lent Cs]
+31.8 +22.3 57 +41 +46 опасность
перегрева
1005.5 1000.4
06 15.07 Ю 4 10 км 6/3 600 м
[Sc Cs]
+32.4 +22.6 56 +42 +51 опасность
перегрева
1004.7 999.6
09 15.07 ЮВ 5 10 км 6/3 600 м
[Sc Cs]
+33.5 +23.9 57 +45 +48 опасность
перегрева
1002.9 997.8
12 15.07 Ю 2 10 км 6/3 600 м
[Sc Ac lent Cs]
+32.0 +23.5 61 +43 +43 опасность
перегрева
1002.8 997.7 +34.1
15 15.07 штиль 0 10 км 8/3 600 м
[Sc Ac lent Cs]
+29.6 +24.1 72 +41 +41 опасность
перегрева
1005.6 1000.5
18 15.07 З 3 10 км 8/3 600 м
[Sc Ac und Cs]
+28.3 +23.5 75 +38 +38 очень
душно
1005.0 999.8
21 15.07 штиль 0 10 км 6/3 1000 м
[Sc Ac und Cs]
+26.6 +22.8 80 +35 +35 очень
душно
1003.3 998.1
00 16.07 штиль 0 12 км 3/3 1000 м
[Sc Ac lent Cs]
+26.5 +23.6 84 +36 +38 очень
душно
1005.1 999.9 +25.2
03 16.07 В 2 12 км 6/3 600 м
[Sc Ac lent Cs]
+31.4 +23.3 62 +42 +51 опасность
перегрева
1006.0 1000.9
06 16.07 ЮЗ 3 12 км 4/3 600 м
[Cu med, cong Cs]
+33.9 +24.1 57 +46 +58 опасность
перегрева
1004.3 999.2
09 16.07 Ю 4 10 км 4/3 600 м
[Cu Sc Cs]
+35.4 +22.5 47 +44 +48 опасность
перегрева
1001.8 996.8
12 16.07 штиль 0 10 км 6/3 600 м
[Cu Sc Ac lent Cs]
+33.0 +24.0 59 +45 +45 опасность
перегрева
1001.4 996.3 +35.6
15 16.07 З 2 10 км 3/1 600 м
[Sc Cs]
+30.4 +24.2 70 +42 +42 опасность
перегрева
1003.7 998.5
18 16.07 штиль 0 10 км 3/1 600 м
[Sc Cs]
+28.3 +25.0 82 +41 +41 опасность
перегрева
1003.7 998.5
21 16.07 В 2 10 км 3/1 600 м
[Sc Cs]
+27.0 +24.1 84 +37 +37 очень
душно
1002.8 997.6
00 17.07 В 2 10 км 3/1 600 м
[Sc Cs]
+27.0 +24.7 87 +38 +40 очень
душно
1003.2 998.0 +26.0
03 17.07 ЮВ 3 12 км 4/3 600 м
[Cu med, cong Cs]
+32.5 +24.2 62 +45 +54 опасность
перегрева
1004.3 999.2
06 17.07 Ю 3 12 км 4/3 600 м
[Cu med, cong Cs]
+34.9 +24.9 56 +48 +60 опасность
перегрева
1003.2 998.1
09 17.07 Ю 3 10 км 6/3 600 м
[Cu Sc Ac lent Cs]
+35.3 +23.1 49 +45 +49 опасность
перегрева
1000.9 995.8
12 17.07 штиль 0 10 км 6/3 600 м
[Cu Sc Ac lent Cs]
+34.0 +24.7 58 +47 +47 опасность
перегрева
1000.3 995.2 +36.3
15 17.07 штиль 0 10 км 4/3 600 м
[Sc Ac lent Cs]
+30.6 +25.5 74 +45 +45 опасность
перегрева
1002.9 997.7
18 17.07 штиль 0 10 км 4/3 600 м
[Sc Ac lent Cs]
+29.0 +25.9 83 +43 +43 опасность
перегрева
1003.3 998.1
21 17.07 штиль 0 10 км 6/3 600 м
[Sc Ac lent Cs]
+28.0 +25.6 87 +41 +41 опасность
перегрева
1002.7 997.5
00 18.07 ЮВ 2 10 км 4/1 1000 м
[Sc Cs]
+28.0 +24.7 82 +40 +41 очень
душно
1003.3 998.1 +27.0
03 18.07 ЮВ 6 10 км 6/3 600 м
[Sc Cs]
+32.1 +24.9 66 +46 +50 опасность
перегрева
1004.2 999.1
06 18.07 З 5 10 км 6/3 600 м
[Sc Cs]
+35.2 +24.6 54 +48 +55 опасность
перегрева
1002.8 997.7
09 18.07 Ю 3 10 км 6/3 600 м
[Cb calv Ac lent Cs]
+35.9 +24.6 52 +48 +52 опасность
перегрева
1000.6 995.6
12 18.07 штиль 0 10 км 6/3 600 м
[Sc Ac lent Cs]
+33.4 +24.3 59 +46 +46 опасность
перегрева
1001.5 996.4 +36.4
15 18.07 ЮВ 2 10 км 4/1 600 м
[Sc Cs]
+30.5 +26.0 77 +46 +46 опасность
перегрева
1003.5 998.4
18 18.07 ЮВ 2 10 км 4/1 600 м
[Sc Cs]
+28.8 +25.4 82 +42 +42 опасность
перегрева
1003.3 998.1
21 18.07 ЮЗ 4 10 км 4/1 600 м
[Sc Cs]
+27.8 +24.5 82 +39 +39 очень
душно
1002.5 997.3
00 19.07 Ю 2 10 км 4/3 600 м
[Sc Ac lent Cs]
+27.0 +24.7 87 +38 +39 очень
душно
1003.8 998.6 +26.8
03 19.07 С 4 10 км 6/3 600 м
[Sc Ac lent Cs]
+31.8 +24.2 64 +44 +50 опасность
перегрева
1005.3 1000.2
06 19.07 ЮЗ 7 10 км 6/3 600 м
[Cu med, cong Ac lent Cs]
+35.8 +22.1 45 +44 +48 опасность
перегрева
1003.8 998.7
09 19.07 З 5 10 км 6/3 600 м
[Sc Ac lent Cs]
+36.7 +22.9 45 +46 +49 опасность
перегрева
1001.1 996.0
12 19.07 штиль 0 10 км 6/3 600 м
[Sc Ac lent Cs]
+34.8 +23.8 53 +46 +46 опасность
перегрева
1000.7 995.7 +37.5
15 19.07 штиль 0 10 км 4/3 600 м
[Sc Cs]
+31.0 +25.4 72 +45 +45 опасность
перегрева
1003.9 998.7
18 19.07 штиль 0 10 км 4/3 600 м
[Sc Cs]
+29.3 +25.0 78 +42 +42 опасность
перегрева
1004.3 999.1
21 19.07 штиль 0 10 км 4/3 600 м
[Sc Cs]
+28.2 +24.9 82 +40 +40 очень
душно
1004.3 999.1
00 20.07 Ю 2 10 км 6/3 600 м
[Sc Ac lent Cs]
+27.3 +24.4 84 +38 +39 очень
душно
1005.9 1000.7 +26.5
03 20.07 ЮВ 3 10 км 4/3 600 м
[Cu med, cong Cs]
+31.3 +24.5 67 +44 +53 опасность
перегрева
1006.8 1001.6
06 20.07 Ю 3 10 км 6/3 600 м
[Cu med, cong Ac lent Cs]
+34.0 +24.0 56 +46 +56 опасность
перегрева
1005.1 1000.0
09 20.07 ЮВ 2 10 км 6/3 600 м
[Cu Sc Ac lent Cs]
+35.0 +24.2 54 +47 +52 опасность
перегрева
1002.5 997.5
12 20.07 штиль 0 10 км 6/3 600 м
[Cu Sc Ac lent Cs]
+32.0 +24.6 65 +45 +45 опасность
перегрева
1002.4 997.3 +36.0
15 20.07 штиль 0 10 км 4/3 600 м
[Sc Cs]
+30.3 +25.3 75 +44 +44 опасность
перегрева
1005.1 999.9
18 20.07 штиль 0 10 км 4/3 600 м
[Sc Cs]
+29.0 +25.3 80 +42 +42 опасность
перегрева
1005.8 1000.6
21 20.07 штиль 0 10 км 4/3 600 м
[Sc Cs]
+28.2 +24.8 82 +40 +40 очень
душно
1005.2 1000.0
00 21.07 Ю 2 10 км 10/5 600 м
[Sc Ac lent Cs]
+28.0 +25.1 84 +40 +41 очень
душно
1007.1 1001.8 +27.0
03 21.07 З 2 10 км 9/3 600 м
[Cu Sc Ac lent Cs]
+31.0 +25.4 72 +45 +51 опасность
перегрева
1007.5 1002.3
06 21.07 ЮВ 6 10 км 8/4 600 м
[Cu Sc Ac lent Cs]
+34.5 +24.6 56 +47 +50 опасность
перегрева
1006.2 1001.1

 

Местоположение метеостанции Пхитсанулок (Таиланд): широта 16.78 долгота 100.26 высота над уровнем моря 45 м.

В архиве по умолчанию представлена погода в Пхитсанулоке за последнюю неделю. Архивные данные за месяц целиком и за предыдущие месяцы, начиная с января 2011 года, Вы можете получить, выбрав интересующий диапазон дат из раскрывающегося списка и нажав кнопку "Ввод!".


*Определитесь, кто Вы:
робот инопланетянин человек

Внимание! Время в таблицах - всемирное. Для получения местного времени необходимо прибавить поправку, которая равна 7 ч.

Смотрите также архив погоды в соседних городах и на ближайших метеорологических станциях:

Погода в Пичит Агромете (Таиланд) (39 км)
Погода в Си Самронг Агромете (Таиланд) (60 км)
Погода в Сукхотаи (Таиланд) (61 км)
Погода в Кампхэнгпхете (Таиланд) (85 км)
Погода в Уттарадите (Таиланд) (95 км)
Погода в Пхетчабуне (Таиланд) (103 км)
Погода в Ломсаке (Таиланд) (105 км)
Погода в Накхон Саван (Таиланд) (110 км)
Погода в Таке (Таиланд) (119 км)
Погода в Дои Му Со Агромете (Таиланд) (142 км)

Пояснения к столбцам:

Ветер - указаны скорость ветра в м/с - средняя за 10 мин, порывы в срок и между сроками (в фигурных скобках) и направление, откуда дует ветер: С - северный, СВ - северо-восточный, В - восточный, ЮВ - юго-восточный, Ю - южный, ЮЗ - юго-западный, З - западный, СЗ - северо-западный.
Видимость - горизонтальная дальность видимости в метрах или километрах. При видимости от 1 до 10 км при отсутствии осадков обычно наблюдается дымка, при ухудшении видимости до 1 км и менее - туман. В сухую погоду видимость может ухудшаться дымом, пылью или мглою.
Явления - указаны атмосферные явления, наблюдавшиеся в срок или в последний час перед сроком; фигурными скобками обозначены явления, наблюдавшиеся между сроками (за 1-3 часа до срока); квадратными скобками обозначены град или гололедные отложения с указанием их диаметра в мм.
Облачность - указаны через наклонную черту общая и нижняя облачность в баллах и высота нижней границы облаков в метрах; квадратными скобками обозначены формы облаков: Ci - перистые, Cs - перисто-слоистые, Cc - перисто-кучевые, Ac - высококучевые, As - высокослоистые, Sc - слоисто-кучевые, Ns - слоисто-дождевые, Cu - кучевые, Cb - кучево-дождевые. Подробнее классификацию облаков см. в Атласе облаков (PDF).
T - Температура воздуха - температура, измеренная на высоте 2 м над землей.
Td - Температура точки росы - температура, при понижении до которой содержащийся в воздухе водяной пар достигнет насыщения.
f - Относительная влажность воздуха - влажноcть воздуха, измеренная на высоте 2 м над землей.
Te - Эффективная температура - температура, которую ощущает одетый по сезону человек в тени. Характеристика душности погоды. При расчете учитывается влияние влажности воздуха и скорости ветра на теплоощущения человека.
Tes - Эффективная температура на солнце - температура, которую ощущает человек, с поправкой на солнечный нагрев. Характеристика знойности погоды. Зависит от высоты солнца над горизонтом, облачности и скорости ветра. Ночью, в пасмурную погоду, а также при ветре 12 м/с и более поправка равна нулю.
P - Атмосферное давление - приведенное к уровню моря атмосферное давление.
Po - Атмосферное давление - измеренное на уровне метеостанции атмосферное давление.
Tmin - Минимальная температура - минимум температуры воздуха на высоте 2 м над землей.
Tmax - Максимальная температура - максимум температуры воздуха на высоте 2 м над землей.
R - Количество осадков - Количество выпавших осадков за период времени, мм. При наведении курсора мыши на число - период времени, за который выпало указанное количество осадков.
R24 - Количество осадков - Количество выпавших осадков за 24 часа, мм.
S - Снежный покров - Высота снежного покрова, см. При наведении курсора мыши на число - состояние снежного покрова и степень покрытия местности в баллах.